Terminal Aerodrome Forecast
Issued by NWS

Home | Current Version | Previous Version | Text Only | Print | Product List | Glossary On
Versions: 1 2 3 4 5 6 7 8 9 10 11 12 13
680
FTUS45 KRIW 021126
TAFBPI
TAF
KBPI 021126Z 0212/0312 VRB05KT P6SM SCT250
     FM022100 VRB05KT P6SM FEW070 BKN250
     FM030200 VRB05KT P6SM BKN250=

USA.gov is the U.S. government's official web portal to all federal, state and local government web resources and services.